Location: Unspecified
(49.4903°N, 0.0000°E)
Time: 01:12:11
(UTC+00:00)

Transit 4A - Visible Passes

Search period start: 04 April 2026 00:00
Search period end: 14 April 2026 00:00
Orbit: 863 x 978 km, 66.8° (Epoch: 29 March)

Date Brightness Start Highest point End Pass type
(mag) Time Alt. Az. Time Alt. Az. Time Alt. Az.
4 Apr 9.7 00:00:13 10° NNW 00:05:33 27° NNE 00:09:53 14° E visible
4 Apr 7.9 01:46:24 10° NW 01:52:48 84° NE 01:53:15 77° ESE visible
4 Apr 9.3 03:33:43 10° WNW 03:36:38 20° W 03:36:38 20° W visible
4 Apr 10.4 20:33:05 10° WNW 20:37:22 19° NNW 20:41:44 10° NNE visible
4 Apr 10.4 22:22:17 10° NNW 22:26:16 17° N 22:30:18 10° NE visible
5 Apr 9.4 00:08:56 10° NNW 00:14:38 33° NE 00:17:21 24° ENE visible
5 Apr 8.0 01:55:11 10° NW 02:00:45 66° WNW 02:00:45 66° WNW visible
5 Apr 9.8 03:43:18 10° WNW 03:44:10 12° WNW 03:44:10 12° WNW visible
5 Apr 10.4 20:42:38 10° NW 20:46:38 17° NNW 20:50:41 10° NNE visible
5 Apr 10.2 22:31:15 10° NNW 22:35:32 19° NNE 22:39:52 10° ENE visible
6 Apr 9.0 00:17:39 10° NNW 00:23:39 41° NE 00:25:07 36° ENE visible
6 Apr 8.5 02:04:03 10° NW 02:08:32 43° WNW 02:08:32 43° WNW visible
6 Apr 9.9 19:02:09 10° W 19:07:23 29° NNW 19:12:46 10° NNE visible
6 Apr 10.4 20:52:07 10° NW 20:55:56 16° N 20:59:47 10° NNE visible
6 Apr 10.1 22:40:06 10° NNW 22:44:47 21° NNE 22:49:30 10° ENE visible
7 Apr 8.5 00:26:23 10° NNW 00:32:36 53° NE 00:33:03 52° ENE visible
7 Apr 9.1 02:12:58 10° NW 02:16:29 29° WNW 02:16:29 29° WNW visible
7 Apr 10.1 19:11:37 10° W 19:16:31 24° NNW 19:21:33 10° NNE visible
7 Apr 10.4 21:01:29 10° NW 21:05:14 16° N 21:09:02 10° NE visible
7 Apr 9.8 22:48:54 10° NNW 22:53:58 24° NNE 22:57:39 15° ENE visible
8 Apr 8.2 00:35:06 10° NNW 00:41:06 67° NNE 00:41:06 67° NNE visible
8 Apr 9.5 02:22:03 10° NW 02:24:32 21° WNW 02:24:32 21° WNW visible
8 Apr 10.3 19:21:09 10° WNW 19:25:42 21° NNW 19:30:22 10° NNE visible
8 Apr 10.3 21:10:43 10° NNW 21:14:33 16° N 21:18:26 10° NE visible
8 Apr 9.6 22:57:40 10° NNW 23:03:06 29° NNE 23:05:46 22° ENE visible
9 Apr 8.2 00:43:51 10° NW 00:49:13 65° NNW 00:49:13 65° NNW visible
9 Apr 9.9 02:31:19 10° WNW 02:32:39 14° WNW 02:32:39 14° WNW visible
9 Apr 10.3 19:30:43 10° WNW 19:34:56 19° NNW 19:39:14 10° NNE visible
9 Apr 10.3 21:19:47 10° NNW 21:23:51 17° NNE 21:27:58 10° NE visible
9 Apr 9.2 23:06:23 10° NNW 23:12:10 35° NE 23:13:57 30° ENE visible
10 Apr 8.5 00:52:39 10° NW 00:57:24 50° WNW 00:57:24 50° WNW visible
10 Apr 10.3 19:40:15 10° NW 19:44:13 17° N 19:48:14 10° NNE visible
10 Apr 10.1 21:28:43 10° NNW 21:33:07 19° NNE 21:37:33 10° ENE visible
10 Apr 8.8 23:15:06 10° NNW 23:21:10 44° NE 23:22:11 41° ENE visible
11 Apr 8.9 01:01:32 10° NW 01:05:38 38° WNW 01:05:38 38° WNW visible
11 Apr 10.3 19:49:43 10° NW 19:53:31 16° N 19:57:21 10° NNE visible
11 Apr 9.9 21:37:34 10° NNW 21:42:21 22° NNE 21:47:01 10° ENE visible
11 Apr 8.4 23:23:49 10° NNW 23:30:05 56° NE 23:30:28 55° ENE visible
12 Apr 9.2 01:10:29 10° NW 01:13:55 28° WNW 01:13:55 28° WNW visible
12 Apr 10.3 19:59:03 10° NW 20:02:49 16° N 20:06:38 10° NE visible
12 Apr 9.7 21:46:21 10° NNW 21:51:31 25° NNE 21:55:20 15° ENE visible
12 Apr 8.1 23:32:33 10° NW 23:38:47 73° NE 23:38:47 73° NE visible
13 Apr 9.6 01:19:35 10° NW 01:22:14 21° WNW 01:22:14 21° WNW visible
13 Apr 10.2 20:08:14 10° NNW 20:12:08 17° N 20:16:05 10° NE visible
13 Apr 9.4 21:55:05 10° NNW 22:00:38 30° NNE 22:03:40 21° ENE visible
13 Apr 8.0 23:41:19 10° NW 23:47:07 75° NW 23:47:07 75° NW visible
